Showing default

O3B FM6, 40081

Orbit data source: Space-Track

O3B FM6, 40081 is a payload satellite owned by O3B (JE) that was launched on Thu, 10 Jul 2014 UTC via a SOYUZ-ST-B launch vehicle from the French Guiana (FRGUI). Payload-class satellites include a variety of spacecraft equipped with specific instruments for various scientific and technological missions. These include communications satellites like Starlink; space stations such as the ISS; scientific satellites like the Hubble; Earth observation satellites from companies like Planet Labs, Umbra, and HawkEye 360; GPS; miniature CubeSats for education and research; and military/defense satellites.

Loading next visibility...
Identifier
40081, 2014-038C
Orbit
Active
Country
Flag of UnknownUnknown / O3B
Related business
Manufacturer
Thales Alenia
Mission
Operational Commercial Communications
Bus & Motor
PRISMA?, LS-400 AOCS?
Mass
700 kg wet, ~500 kg dry
Launch date (UTC)
2014-07-10 (11 years ago)
Launch vehicle
SOYUZ-ST-B
Launch site
French Guiana (FRGUI)
Object type
Payload
Rocket body
Debris
Shape & HBR
Trap Box + 2 Pan, 6.0 m
Radar Cross Section
21.980 m², Large (>1 m²)

Expand to show TLE details & history
Last TLE update: 11 hours ago

TLE from 11 hours ago
0 O3B FM6
1 40081U 14038C   25308.40195516 -.00000011  00000-0  00000-0 0  9991
2 40081   0.0573 359.6177 0002737 222.6593 137.7099  5.00115555206580
Epoch: 2025-11-04T09:38Z
TLE epoch observation values (Epoch: 2025-11-04T09:38:48.925Z)
Latitude
0.00536°
Longitude
171.40667°
Altitude
8,067.297 km
Speed
5.253 km/s
True Right ascension
00h 00m 00s
True Declination
0° 00' 19"
Sunlit
Object was in daylight at epoch
Visualization orbit readout
Latitude
Unknown
Longitude
Unknown
Altitude
Unknown
Speed
Unknown
Apparent Right ascension
Unknown
Apparent Declination
Unknown
Sunlit
N/A
Visualization observer readout
Local Sidereal Time
16:26:30
Azimuth
Unknown
Elevation
Unknown
Doppler factor
Unknown
Orbital elements
Apogee altitude
8,072.902 km
Perigee altitude
8,064.993 km
Semi-major axis
14,447.085 km
Eccentricity
0.00027
Inclination
0.0573°
RAAN
359.6177°
Arg. of periapsis
222.6593°
True anomaly
137.731°
Mean anomaly
137.7099°
Eccentric anomaly
137.72045°
Mean motion
1.24989 °/min
Orbital period
288.02 mins
BSTAR
0
Loading maneuver chart data...
Computing Atmospheric mass density...
Loading historical data...
Loading historical data...
Loading historical data...
Loading historical data...
Loading historical data...
Loading historical data...
Loading historical data...
Other satellites on launch #38 in the year 2014 (2014-07-10 UTC)

Documentation

Showing up to 5 results
|